Wind_Speed
10 9 10 15 19 24 28 30 31 35 32 27 22 19 19 20 22 24 25 26 29 31 32 32 30 31 35 38 38 41 42 38 38 35 27 35 38 35 34 29 28 33 33 27 32
6 9 13 17 22 25 28 30 35 33 30 24 19 18 18 19 22 26 27 27 30 31 32 32 31 30 33 37 41 43 41 34 35 42 38 39 39 38 36 32 28 28 31 32 22
9 12 16 19 22 23 26 30 33 29 28 21 18 14 17 23 26 27 27 30 31 31 31 30 30 30 32 33 36 43 43 37 37 39 35 40 44 41 39 33 31 27 28 32 32
15 17 18 20 22 21 24 30 30 28 24 23 16 15 20 24 27 27 32 35 37 34 32 28 30 30 28 32 36 35 36 36 37 39 38 34 45 44 40 34 31 30 27 27 32
19 18 18 18 20 21 22 30 30 25 22 22 18 19 22 26 28 34 36 39 38 37 34 27 27 29 30 28 31 34 35 34 34 37 39 36 37 47 42 36 33 33 33 31 30
15 15 17 18 17 21 25 30 28 23 21 21 18 20 26 27 33 37 41 43 45 41 36 28 25 26 28 28 26 29 32 33 34 36 37 37 36 39 45 36 35 36 37 35 33
15 16 18 18 16 18 26 29 23 20 21 18 20 22 27 31 36 41 45 50 50 43 31 24 22 21 24 26 24 23 27 30 32 35 39 37 36 42 37 46 41 40 41 39 36
17 19 19 15 15 21 27 27 20 20 19 17 19 22 28 33 40 44 48 54 48 34 27 22 23 19 19 20 22 21 20 24 30 33 35 37 34 36 40 43 49 48 42 41 39
20 20 19 14 15 23 27 25 19 18 16 17 19 22 29 36 42 46 51 52 43 28 24 23 23 21 16 17 17 17 17 18 23 29 33 35 32 35 37 42 43 46 43 43 40
21 20 17 16 19 23 28 24 20 17 17 17 20 24 30 37 43 47 52 48 36 26 23 20 21 18 15 14 15 15 17 17 16 22 29 34 31 34 35 39 41 38 41 44 37
22 20 18 19 23 24 26 23 21 19 18 17 20 24 30 36 43 49 50 43 31 28 24 19 20 17 15 13 14 14 16 18 18 17 17 27 26 31 35 34 36 40 39 40 46
21 21 20 21 20 22 24 23 22 19 18 18 19 24 29 36 42 48 46 35 30 29 25 21 21 19 14 13 14 14 15 16 17 20 18 20 21 26 30 34 35 35 35 39 42
20 22 22 19 21 22 21 25 23 20 18 18 19 23 28 35 41 45 40 33 29 28 28 26 24 22 18 14 14 15 15 15 16 18 20 22 21 22 25 28 31 32 36 38 38
20 20 19 21 23 24 22 24 21 19 18 15 18 21 28 34 38 43 37 28 29 30 29 28 28 23 15 12 11 11 13 14 16 16 16 18 16 20 21 25 27 33 26 31 35
22 20 21 24 25 25 23 24 22 18 19 16 17 19 25 33 37 42 37 29 28 31 32 35 29 13 8 11 14 14 13 11 13 13 15 16 16 15 20 25 24 26 29 30 29
26 23 25 25 23 24 23 23 22 22 19 19 17 18 23 30 36 40 37 32 28 31 33 37 25 12 13 16 16 16 13 9 7 8 9 12 12 15 20 24 29 32 30 32 36
30 27 28 25 25 25 24 23 24 22 19 17 18 16 21 28 34 39 39 34 29 33 32 36 18 13 17 20 20 16 10 7 3 1 7 8 8 12 17 21 26 31 36 38 38
32 31 27 24 25 24 25 25 24 22 18 19 16 15 19 25 31 37 39 35 29 29 31 32 17 16 20 18 15 12 6 7 3 2 5 8 10 12 12 13 15 19 24 33 44
32 32 30 25 26 26 25 26 23 21 18 18 15 15 17 22 28 33 36 33 28 26 29 30 19 14 18 14 11 10 10 10 8 9 11 13 13 14 17 20 19 10 9 15 21
34 32 29 30 28 28 28 26 22 21 18 16 15 14 15 18 25 30 34 34 26 24 27 29 24 14 17 13 15 15 13 9 6 6 8 10 11 10 8 10 3 7 11 17 20
37 38 35 33 33 28 28 26 22 19 17 16 16 14 14 16 22 28 32 33 28 23 25 29 29 16 16 12 15 14 13 9 8 5 2 6 6 7 8 6 4 5 7 12 21
43 41 38 36 32 29 26 23 21 18 18 16 17 15 14 13 18 24 29 31 29 22 23 26 27 17 12 13 14 15 13 7 6 6 5 4 7 6 8 8 7 11 11 11 15
39 39 41 36 33 31 24 23 21 19 19 17 17 16 14 12 16 21 26 29 29 25 23 24 28 23 13 12 14 16 12 10 8 8 7 5 4 5 7 7 7 11 14 15 16
37 35 33 33 32 30 24 25 23 20 19 17 17 17 13 11 12 18 23 27 29 28 22 24 29 24 14 12 11 13 12 8 8 6 5 5 6 7 8 11 12 12 10 9 14
34 32 28 29 26 28 25 24 23 19 18 17 17 16 14 12 11 15 20 25 27 29 23 23 29 27 12 11 10 9 11 7 5 5 3 4 6 9 9 9 10 12 11 10 16
37 37 28 27 27 27 22 24 22 20 17 18 18 17 16 13 10 13 17 22 26 28 23 21 26 27 10 10 9 6 7 6 4 5 3 3 3 4 6 7 8 14 17 16 17
42 35 32 30 32 30 27 26 23 20 18 18 19 19 18 16 12 10 13 19 23 27 24 18 22 27 10 8 7 7 6 6 4 3 4 5 4 6 8 11 18 22 22 15 13
Wind_Direction
317 317 324 318 323 327 333 331 333 345 331 326 332 333 341 339 330 326 324 315 308 299 293 290 281 266 253 251 250 248 251 254 249 249 240 237 238 236 239 235 242 229 225 228 224
297 313 315 318 322 331 333 333 340 338 328 328 335 341 346 341 336 332 328 323 315 308 300 295 290 280 268 252 249 250 249 251 247 248 243 237 240 237 236 240 237 241 226 227 232
294 306 311 319 321 331 328 333 341 338 327 330 335 348 343 342 339 335 335 333 333 323 305 291 282 278 269 260 252 250 250 247 247 253 246 238 238 240 236 237 239 234 234 228 227
295 302 309 315 321 325 328 334 344 335 326 332 329 340 348 349 342 340 335 334 328 327 324 301 279 272 270 263 255 248 250 249 248 248 254 258 230 237 238 232 238 237 232 231 226
294 300 309 318 323 325 335 342 346 335 329 333 332 347 356 352 343 337 334 332 333 328 323 310 282 273 271 266 258 249 245 241 240 245 249 250 248 233 239 235 233 240 236 229 229
299 305 314 322 320 329 340 342 341 332 332 329 340 348 353 351 342 338 335 332 332 329 324 314 298 275 272 273 265 253 244 241 238 241 241 241 246 250 235 238 235 235 237 232 229
306 309 318 316 322 335 340 341 339 334 333 327 345 350 350 348 344 339 337 333 332 329 321 319 318 286 275 275 269 261 248 241 236 238 240 241 239 246 245 235 230 233 234 235 230
307 313 317 318 329 338 336 339 342 330 328 328 342 346 346 348 344 342 337 334 334 328 323 319 328 320 286 280 275 262 258 247 241 238 241 240 238 246 241 242 232 232 235 235 234
305 311 313 315 328 328 331 334 335 322 325 326 338 341 346 347 346 341 341 338 342 336 328 322 325 325 305 281 276 263 255 255 248 243 239 240 239 238 241 247 244 237 239 236 235
303 309 302 306 326 327 330 330 331 325 320 322 337 340 345 345 344 344 346 346 353 348 340 331 331 322 318 291 274 264 261 261 252 245 241 238 236 238 240 246 245 242 244 240 235
298 301 299 305 318 322 330 330 331 324 316 323 334 339 343 346 347 345 350 353 2 357 348 344 343 331 318 302 281 262 255 256 258 247 244 244 240 236 238 236 243 244 237 241 233
294 294 300 310 313 322 328 329 329 320 309 317 327 335 343 348 348 349 352 360 8 358 353 351 347 341 325 299 286 276 261 250 251 246 236 246 242 238 237 239 236 238 240 238 244
287 293 298 301 310 316 325 331 324 316 303 311 325 333 343 348 350 351 352 358 1 355 346 342 338 333 328 313 289 276 272 261 253 249 236 242 246 242 239 240 241 243 240 232 232
281 288 293 304 312 312 321 324 322 316 304 303 323 332 344 348 351 353 351 351 352 349 346 341 335 326 333 338 335 313 285 269 257 250 251 237 248 245 246 247 246 244 246 246 247
272 278 281 300 302 307 318 318 320 316 302 306 324 335 342 349 352 354 351 345 347 348 350 343 332 336 355 350 335 328 317 302 270 253 251 250 243 242 240 247 245 247 244 243 236
267 272 279 295 301 306 310 313 316 313 302 304 318 335 342 349 354 354 349 344 347 346 350 347 350 354 353 345 336 323 322 317 280 245 238 245 245 247 244 242 245 247 245 245 244
267 265 278 287 294 300 302 306 312 307 307 301 312 328 337 349 354 353 351 351 354 349 354 352 359 359 351 346 345 352 13 17 352 151 177 203 229 238 250 255 253 251 251 249 247
266 270 272 276 286 296 297 301 307 303 298 291 301 318 337 347 353 354 351 352 354 354 355 352 348 347 348 355 0 18 47 30 105 175 251 237 254 257 269 269 273 268 266 261 254
265 269 273 271 286 289 291 295 299 299 296 291 292 309 330 346 351 355 354 353 356 357 356 352 338 336 342 347 342 332 318 309 286 279 271 272 268 263 267 272 271 249 256 258 258
265 270 267 274 280 285 286 290 292 290 287 288 282 302 322 345 351 353 355 355 357 0 357 352 340 326 334 331 337 347 355 348 331 316 279 255 263 274 267 288 279 216 247 272 291
263 265 265 270 278 281 280 285 285 286 282 283 280 294 312 342 351 353 355 355 357 1 359 354 344 322 317 315 333 334 346 356 353 23 150 233 250 257 265 264 271 291 297 299 288
259 261 264 268 272 272 273 275 277 282 280 280 278 285 301 336 349 352 357 356 356 359 1 352 345 317 307 301 320 326 332 358 338 357 352 252 243 269 285 270 270 281 286 309 316
258 261 261 260 265 263 263 268 274 276 281 276 274 277 288 322 340 351 355 357 355 360 1 352 349 332 289 294 303 310 323 343 357 357 3 355 315 285 315 344 309 297 299 294 310
264 258 257 263 257 250 253 262 271 271 276 272 270 272 277 303 335 349 354 356 356 1 360 351 347 342 291 284 293 310 305 317 340 357 359 12 334 317 336 358 346 327 329 314 326
249 252 252 250 242 246 252 259 265 262 271 270 266 266 273 286 317 341 353 356 357 3 1 351 349 344 312 296 300 293 303 298 342 352 323 337 315 325 326 346 342 338 336 337 356
235 247 252 244 243 247 254 256 256 249 263 270 266 264 271 270 299 331 351 355 355 2 0 354 351 352 326 316 311 307 312 303 351 352 355 325 325 2 352 3 20 15 13 10 357
243 235 246 248 247 245 261 253 249 246 253 266 264 257 263 264 282 317 345 356 356 2 1 354 357 357 330 328 334 327 310 315 349 18 35 49 53 34 25 29 25 17 14 10 347
Height
5834 5833 5832 5831 5829 5825 5823 5821 5817 5811 5808 5804 5801 5796 5792 5790 5788 5786 5784 5781 5776 5773 5770 5768 5767 5766 5765 5766 5768 5768 5769 5775 5778 5779 5783 5783 5783 5787 5789 5790 5794 5796 5800 5803 5804
5831 5831 5830 5829 5826 5824 5820 5818 5813 5808 5805 5801 5799 5794 5791 5787 5785 5782 5778 5773 5769 5767 5764 5761 5759 5758 5757 5757 5758 5759 5762 5767 5768 5768 5774 5776 5778 5781 5785 5787 5790 5793 5797 5798 5799
5829 5828 5827 5825 5823 5821 5818 5815 5811 5806 5804 5800 5795 5790 5788 5785 5782 5778 5774 5769 5765 5762 5757 5754 5751 5748 5748 5748 5748 5749 5754 5758 5760 5761 5766 5767 5770 5774 5779 5784 5785 5788 5791 5794 5797
5826 5825 5824 5822 5820 5818 5815 5813 5808 5805 5802 5798 5794 5787 5783 5782 5781 5775 5770 5764 5758 5753 5749 5745 5742 5741 5739 5739 5739 5740 5745 5749 5753 5754 5757 5760 5760 5764 5770 5779 5781 5783 5787 5790 5793
5823 5822 5821 5819 5818 5816 5813 5809 5805 5802 5799 5795 5793 5787 5782 5780 5777 5772 5764 5758 5751 5744 5740 5735 5733 5732 5731 5729 5730 5732 5735 5740 5742 5745 5749 5753 5753 5755 5763 5770 5775 5777 5781 5784 5787
5819 5819 5818 5817 5815 5815 5811 5806 5801 5799 5796 5793 5789 5787 5781 5777 5771 5765 5758 5750 5744 5738 5732 5727 5724 5723 5723 5723 5723 5725 5726 5730 5734 5735 5739 5744 5747 5749 5756 5761 5766 5769 5773 5777 5780
5816 5816 5815 5815 5813 5811 5808 5804 5798 5795 5793 5790 5787 5783 5777 5774 5766 5759 5753 5743 5735 5729 5724 5720 5717 5715 5715 5715 5716 5717 5720 5723 5725 5726 5729 5736 5741 5742 5746 5748 5755 5758 5764 5768 5773
5813 5813 5813 5812 5811 5809 5805 5800 5795 5794 5790 5787 5784 5780 5775 5770 5764 5756 5747 5738 5727 5720 5718 5715 5712 5709 5708 5709 5711 5711 5713 5716 5718 5720 5724 5727 5736 5736 5738 5738 5744 5748 5754 5760 5765
5811 5810 5810 5809 5808 5806 5802 5798 5793 5791 5787 5785 5781 5777 5773 5767 5760 5752 5743 5730 5721 5716 5714 5712 5708 5706 5704 5704 5706 5706 5707 5710 5713 5715 5718 5722 5728 5729 5731 5732 5737 5741 5745 5750 5756
5807 5807 5807 5807 5805 5803 5799 5795 5791 5788 5786 5782 5779 5776 5770 5765 5756 5747 5739 5726 5718 5715 5712 5709 5705 5703 5701 5700 5702 5701 5703 5704 5707 5710 5712 5713 5717 5720 5722 5724 5728 5731 5734 5740 5746
5803 5803 5803 5803 5801 5798 5795 5793 5790 5785 5782 5779 5776 5772 5768 5761 5752 5744 5734 5725 5718 5715 5711 5707 5704 5700 5699 5698 5697 5698 5698 5699 5701 5704 5706 5706 5709 5709 5712 5717 5719 5720 5725 5730 5734
5799 5800 5800 5799 5798 5795 5791 5789 5786 5783 5779 5777 5774 5771 5766 5758 5750 5742 5733 5726 5719 5715 5711 5708 5704 5700 5696 5695 5694 5693 5693 5695 5696 5697 5700 5699 5699 5704 5706 5708 5712 5714 5717 5721 5724
5794 5795 5796 5794 5794 5792 5787 5785 5783 5780 5776 5775 5772 5768 5764 5758 5749 5741 5732 5724 5719 5715 5711 5706 5703 5698 5695 5693 5691 5689 5690 5690 5691 5691 5692 5692 5695 5698 5700 5703 5706 5709 5710 5711 5713
5789 5790 5791 5791 5791 5788 5785 5782 5780 5777 5775 5774 5770 5766 5762 5755 5747 5739 5731 5726 5719 5714 5710 5705 5700 5694 5691 5689 5687 5686 5685 5685 5685 5685 5686 5689 5690 5692 5694 5696 5698 5701 5703 5706 5710
5784 5785 5786 5786 5786 5784 5781 5778 5776 5773 5772 5771 5767 5762 5757 5753 5745 5738 5730 5723 5718 5712 5709 5703 5695 5691 5689 5687 5685 5684 5681 5680 5679 5680 5681 5683 5686 5687 5688 5690 5691 5693 5695 5699 5701
5779 5780 5781 5781 5781 5780 5777 5774 5772 5772 5769 5767 5764 5760 5755 5750 5742 5735 5729 5722 5715 5710 5706 5699 5692 5690 5688 5686 5683 5680 5677 5676 5675 5676 5677 5677 5680 5680 5682 5683 5684 5686 5688 5690 5692
5773 5772 5775 5776 5776 5775 5773 5771 5770 5767 5765 5764 5762 5758 5753 5748 5743 5735 5728 5720 5713 5708 5703 5698 5693 5690 5687 5684 5679 5677 5675 5674 5674 5674 5675 5674 5676 5676 5677 5677 5677 5679 5680 5682 5684
5767 5768 5766 5769 5769 5769 5769 5767 5766 5763 5760 5759 5758 5755 5751 5746 5741 5734 5727 5719 5712 5708 5703 5698 5694 5690 5687 5684 5680 5678 5677 5676 5675 5675 5674 5674 5673 5672 5672 5672 5672 5672 5672 5673 5675
5758 5760 5763 5762 5763 5764 5763 5762 5759 5758 5756 5756 5754 5752 5749 5744 5740 5733 5727 5719 5712 5707 5703 5698 5694 5691 5688 5684 5682 5679 5677 5676 5674 5672 5672 5670 5670 5670 5669 5668 5665 5665 5665 5665 5663
5752 5754 5756 5757 5756 5757 5758 5757 5755 5752 5751 5751 5751 5749 5746 5742 5737 5732 5725 5719 5711 5705 5701 5698 5693 5690 5688 5684 5681 5678 5676 5674 5671 5670 5668 5667 5666 5667 5665 5663 5661 5660 5659 5658 5656
5743 5746 5749 5750 5751 5751 5752 5752 5750 5748 5747 5747 5747 5746 5743 5740 5735 5730 5724 5718 5710 5704 5701 5696 5693 5690 5687 5684 5681 5679 5676 5674 5671 5669 5666 5665 5666 5664 5663 5661 5658 5656 5654 5651 5648
5733 5737 5740 5742 5745 5744 5745 5746 5745 5744 5742 5741 5742 5743 5740 5737 5733 5729 5723 5716 5710 5703 5700 5697 5693 5688 5686 5682 5680 5677 5675 5673 5671 5669 5666 5664 5664 5662 5660 5657 5654 5652 5649 5647 5643
5723 5728 5731 5732 5734 5736 5739 5741 5740 5740 5739 5737 5737 5739 5737 5734 5731 5727 5721 5715 5709 5702 5697 5696 5692 5686 5683 5682 5678 5676 5674 5671 5669 5666 5664 5662 5662 5658 5656 5654 5651 5647 5644 5640 5636
5716 5718 5722 5725 5725 5728 5732 5734 5734 5735 5734 5733 5732 5734 5733 5731 5728 5725 5720 5714 5707 5700 5695 5694 5691 5684 5681 5679 5677 5674 5672 5671 5668 5666 5664 5662 5660 5658 5655 5652 5648 5645 5641 5637 5632
5706 5711 5713 5714 5719 5720 5725 5728 5727 5729 5729 5729 5728 5729 5729 5728 5727 5723 5718 5713 5707 5699 5694 5693 5689 5683 5678 5675 5674 5673 5670 5670 5668 5665 5663 5661 5658 5656 5653 5650 5648 5644 5640 5635 5629
5698 5704 5705 5709 5712 5715 5719 5721 5721 5722 5724 5724 5724 5725 5725 5724 5724 5720 5716 5711 5707 5699 5694 5692 5689 5682 5676 5674 5672 5670 5669 5668 5666 5664 5661 5659 5658 5656 5653 5651 5647 5642 5637 5632 5628
5690 5694 5697 5701 5705 5708 5711 5714 5716 5716 5717 5718 5718 5719 5721 5721 5719 5717 5714 5709 5705 5699 5694 5692 5688 5682 5676 5673 5671 5670 5668 5667 5666 5664 5662 5660 5658 5656 5653 5649 5644 5640 5637 5633 5630